When you browse on this site, cookies collect data to enhance your experience and personalize the content and advertising you see.
Visit our Privacy Policy to learn more. By continuing to use the site, you agree to this use of cookies and data.
  • In Österreich
  • Länderverzeichnis
  • Für 7 Tage
  • Wassertemperatur
  • Wetterkarte
  • News
  • Widgets
  • user-avatar
    Anmelden

    Stündliche Wetter Pandi

    Heute, 21 November, Donnerstag

    Zeit Temperatur Niederschläge Wind Luftdruck Luftfeuchtigkeit
    00:00 +20°C° 0.4 mm 0 m/S 679 mmHg 91%
    01:00 +20°C° 0.4 mm 0 m/S 679 mmHg 91%
    02:00 +19°C° 0.2 mm 0 m/S 679 mmHg 92%
    03:00 +19°C° 0.2 mm 0 m/S 679 mmHg 92%
    04:00 +19°C° 0.2 mm 0 m/S 679 mmHg 92%
    05:00 +20°C° 0.1 mm 0 m/S 679 mmHg 91%
    06:00 +20°C° 0.1 mm 0 m/S 680 mmHg 90%
    07:00 +21°C° 0.1 mm 0 m/S 680 mmHg 89%
    08:00 +22°C° 0.2 mm 0 m/S 680 mmHg 87%
    09:00 +23°C° 0.2 mm 0 m/S 680 mmHg 84%
    10:00 +26°C° 0.2 mm 1 m/S 681 mmHg 82%
    11:00 +27°C° 0.3 mm 1 m/S 680 mmHg 80%
    12:00 +27°C° 0.3 mm 1 m/S 679 mmHg 78%
    13:00 +28°C° 0.3 mm 1 m/S 679 mmHg 75%
    14:00 +27°C° 1 mm 1 m/S 678 mmHg 78%
    15:00 +27°C° 1 mm 1 m/S 678 mmHg 82%
    16:00 +27°C° 1 mm 1 m/S 677 mmHg 85%
    17:00 +25°C° 0.6 mm 1 m/S 677 mmHg 85%
    18:00 +24°C° 0.6 mm 1 m/S 678 mmHg 86%
    19:00 +23°C° 0.6 mm 1 m/S 678 mmHg 87%
    20:00 +23°C° 0.1 mm 1 m/S 678 mmHg 87%
    21:00 +22°C° 0.1 mm 1 m/S 679 mmHg 86%
    22:00 +22°C° 0.1 mm 1 m/S 679 mmHg 85%
    23:00 +22°C° 0.1 mm 1 m/S 679 mmHg 85%

    Morgen, 22 November, Freitag

    Zeit Temperatur Niederschläge Wind Luftdruck Luftfeuchtigkeit
    00:00 +21°C° 0.1 mm 1 m/S 678 mmHg 84%
    01:00 +21°C° 0.1 mm 1 m/S 678 mmHg 84%
    02:00 +21°C° 0.2 mm 1 m/S 678 mmHg 84%
    03:00 +21°C° 0.2 mm 1 m/S 678 mmHg 84%
    04:00 +21°C° 0.2 mm 1 m/S 678 mmHg 84%
    05:00 +21°C° 0.1 mm 1 m/S 678 mmHg 83%
    06:00 +20°C° 0.1 mm 0 m/S 679 mmHg 82%
    07:00 +21°C° 0.1 mm 0 m/S 679 mmHg 81%
    08:00 +23°C° 0 mm 0 m/S 680 mmHg 78%
    09:00 +26°C° 0 mm 1 m/S 680 mmHg 76%
    10:00 +27°C° 0 mm 1 m/S 680 mmHg 73%
    11:00 +27°C° 0.4 mm 1 m/S 680 mmHg 75%
    12:00 +27°C° 0.4 mm 1 m/S 679 mmHg 76%
    13:00 +27°C° 0.4 mm 1 m/S 678 mmHg 78%
    14:00 +27°C° 0.7 mm 1 m/S 678 mmHg 79%
    15:00 +27°C° 0.7 mm 1 m/S 677 mmHg 79%
    16:00 +27°C° 0.7 mm 1 m/S 677 mmHg 80%
    17:00 +25°C° 0.8 mm 1 m/S 677 mmHg 81%
    18:00 +24°C° 0.8 mm 1 m/S 677 mmHg 83%
    19:00 +23°C° 0.8 mm 1 m/S 677 mmHg 84%
    20:00 +23°C° 0.5 mm 1 m/S 678 mmHg 85%
    21:00 +22°C° 0.5 mm 1 m/S 679 mmHg 85%
    22:00 +22°C° 0.5 mm 1 m/S 679 mmHg 85%
    23:00 +22°C° 0.5 mm 1 m/S 679 mmHg 86%

    übermorgen, 23 November, Samstag

    Zeit Temperatur Niederschläge Wind Luftdruck Luftfeuchtigkeit
    00:00 +22°C° 0.5 mm 1 m/S 679 mmHg 87%
    01:00 +22°C° 0.5 mm 1 m/S 678 mmHg 87%
    02:00 +21°C° 0.3 mm 1 m/S 678 mmHg 88%
    03:00 +19°C° 0.3 mm 0 m/S 678 mmHg 89%
    04:00 +19°C° 0.3 mm 0 m/S 678 mmHg 90%
    05:00 +20°C° 0 mm 0 m/S 678 mmHg 88%
    06:00 +20°C° 0 mm 0 m/S 679 mmHg 87%
    07:00 +21°C° 0 mm 0 m/S 679 mmHg 85%
    08:00 +22°C° 0.1 mm 0 m/S 680 mmHg 85%
    09:00 +25°C° 0.1 mm 1 m/S 680 mmHg 84%
    10:00 +26°C° 0.1 mm 1 m/S 680 mmHg 83%
    11:00 +26°C° 0.4 mm 1 m/S 679 mmHg 82%
    12:00 +27°C° 0.4 mm 1 m/S 679 mmHg 81%
    13:00 +27°C° 0.4 mm 1 m/S 678 mmHg 81%
    14:00 +27°C° 0.4 mm 1 m/S 678 mmHg 80%
    15:00 +27°C° 0.4 mm 1 m/S 677 mmHg 80%
    16:00 +25°C° 0.4 mm 0 m/S 677 mmHg 79%
    17:00 +26°C° 0.4 mm 1 m/S 677 mmHg 82%
    18:00 +24°C° 0.4 mm 1 m/S 678 mmHg 85%
    19:00 +23°C° 0.4 mm 1 m/S 678 mmHg 87%
    20:00 +23°C° 0.4 mm 1 m/S 678 mmHg 88%
    21:00 +23°C° 0.4 mm 1 m/S 679 mmHg 88%
    22:00 +22°C° 0.4 mm 1 m/S 679 mmHg 88%
    23:00 +22°C° 0.3 mm 1 m/S 679 mmHg 89%

    24 November, Sonntag

    Zeit Temperatur Niederschläge Wind Luftdruck Luftfeuchtigkeit
    00:00 +20°C° 0.3 mm 0 m/S 679 mmHg 89%
    01:00 +20°C° 0.3 mm 0 m/S 678 mmHg 90%
    02:00 +20°C° 0.2 mm 0 m/S 678 mmHg 90%
    03:00 +20°C° 0.2 mm 0 m/S 678 mmHg 90%
    04:00 +20°C° 0.2 mm 0 m/S 678 mmHg 90%
    05:00 +20°C° 0 mm 0 m/S 678 mmHg 89%
    06:00 +20°C° 0 mm 0 m/S 679 mmHg 88%
    07:00 +21°C° 0 mm 0 m/S 679 mmHg 87%
    08:00 +22°C° 0.2 mm 0 m/S 680 mmHg 85%
    09:00 +25°C° 0.2 mm 1 m/S 680 mmHg 83%
    10:00 +27°C° 0.2 mm 1 m/S 680 mmHg 81%
    11:00 +27°C° 0.4 mm 1 m/S 679 mmHg 80%
    12:00 +27°C° 0.4 mm 1 m/S 678 mmHg 80%
    13:00 +28°C° 0.4 mm 1 m/S 677 mmHg 79%
    14:00 +27°C° 0.4 mm 1 m/S 677 mmHg 79%
    15:00 +27°C° 0.4 mm 1 m/S 677 mmHg 80%
    16:00 +25°C° 0.4 mm 0 m/S 676 mmHg 80%
    17:00 +26°C° 0.6 mm 1 m/S 677 mmHg 83%
    18:00 +25°C° 0.6 mm 1 m/S 677 mmHg 86%
    19:00 +24°C° 0.6 mm 1 m/S 677 mmHg 89%
    20:00 +23°C° 1 mm 1 m/S 678 mmHg 89%
    21:00 +23°C° 1 mm 1 m/S 678 mmHg 89%
    22:00 +22°C° 1 mm 1 m/S 679 mmHg 89%
    23:00 +22°C° 0.5 mm 1 m/S 678 mmHg 89%

    25 November, Montag

    Zeit Temperatur Niederschläge Wind Luftdruck Luftfeuchtigkeit
    00:00 +22°C° 0.5 mm 1 m/S 678 mmHg 88%
    01:00 +22°C° 0.5 mm 1 m/S 678 mmHg 88%
    02:00 +22°C° 0.3 mm 1 m/S 677 mmHg 88%
    03:00 +21°C° 0.3 mm 1 m/S 677 mmHg 87%
    04:00 +21°C° 0.3 mm 1 m/S 677 mmHg 87%
    05:00 +22°C° 0.2 mm 1 m/S 678 mmHg 86%
    06:00 +21°C° 0.2 mm 0 m/S 678 mmHg 85%
    07:00 +21°C° 0.2 mm 0 m/S 679 mmHg 85%
    08:00 +25°C° 0.2 mm 1 m/S 679 mmHg 82%
    09:00 +26°C° 0.2 mm 1 m/S 679 mmHg 80%
    10:00 +27°C° 0.2 mm 1 m/S 679 mmHg 77%
    11:00 +28°C° 0.3 mm 1 m/S 678 mmHg 77%
    12:00 +28°C° 0.3 mm 1 m/S 677 mmHg 76%
    13:00 +28°C° 0.3 mm 1 m/S 677 mmHg 76%
    14:00 +28°C° 0.2 mm 1 m/S 676 mmHg 76%
    15:00 +28°C° 0.2 mm 1 m/S 676 mmHg 77%
    16:00 +28°C° 0.2 mm 1 m/S 675 mmHg 77%
    17:00 +26°C° 0.6 mm 1 m/S 676 mmHg 82%
    18:00 +25°C° 0.6 mm 1 m/S 676 mmHg 86%
    19:00 +24°C° 0.6 mm 1 m/S 676 mmHg 90%
    20:00 +23°C° 0.9 mm 1 m/S 677 mmHg 90%
    21:00 +23°C° 0.9 mm 1 m/S 677 mmHg 89%
    22:00 +23°C° 0.9 mm 1 m/S 678 mmHg 89%
    23:00 +22°C° 0.7 mm 1 m/S 677 mmHg 89%

    26 November, Dienstag

    Zeit Temperatur Niederschläge Wind Luftdruck Luftfeuchtigkeit
    00:00 +22°C° 0.7 mm 1 m/S 677 mmHg 88%
    01:00 +22°C° 0.7 mm 1 m/S 677 mmHg 88%
    02:00 +22°C° 0.4 mm 1 m/S 677 mmHg 88%
    03:00 +22°C° 0.4 mm 1 m/S 677 mmHg 88%
    04:00 +22°C° 0.4 mm 1 m/S 676 mmHg 88%
    05:00 +23°C° 0.1 mm 1 m/S 677 mmHg 88%
    06:00 +21°C° 0.1 mm 0 m/S 678 mmHg 87%
    07:00 +22°C° 0.1 mm 0 m/S 678 mmHg 87%
    08:00 +25°C° 0.3 mm 1 m/S 679 mmHg 85%
    09:00 +26°C° 0.3 mm 1 m/S 679 mmHg 83%
    10:00 +27°C° 0.3 mm 1 m/S 679 mmHg 81%
    11:00 +27°C° 0.6 mm 1 m/S 678 mmHg 81%
    12:00 +28°C° 0.6 mm 1 m/S 678 mmHg 81%
    13:00 +28°C° 0.6 mm 1 m/S 677 mmHg 81%
    14:00 +28°C° 0.4 mm 1 m/S 676 mmHg 81%
    15:00 +28°C° 0.4 mm 1 m/S 676 mmHg 80%
    16:00 +26°C° 0.4 mm 0 m/S 675 mmHg 79%
    17:00 +26°C° 0.7 mm 1 m/S 676 mmHg 82%
    18:00 +25°C° 0.7 mm 1 m/S 676 mmHg 85%
    19:00 +24°C° 0.7 mm 1 m/S 677 mmHg 88%
    20:00 +24°C° 0.3 mm 1 m/S 677 mmHg 87%
    21:00 +23°C° 0.3 mm 2 m/S 678 mmHg 86%
    22:00 +23°C° 0.3 mm 2 m/S 678 mmHg 86%
    23:00 +23°C° 0.2 mm 2 m/S 678 mmHg 85%
    Mehr zeigen